[[{"header":{"parameterUnit":"m.s-1","parameterCategory":1,"la1":30.2991,"la2":30.254,"lo1":-89.0895,"lo2":-89.0444,"dy":0.0017,"dx":0.0017,"nx":28,"ny":28,"refTime":"2024-10-18T03:00:00:Z","depth":0,"parameterNumber":2,"parameterNumberName":"U-component_of_WINDS"},"data":[0,0,0,0,0,0,0,0,0,0,0,0,0,0,0,0,0,0,0,0,0,0,0,0,0,0,0,0,0,0,0,0,0,0,0,0,0,0,0,0,0,0,0,0,0,0,0,0,0,0,0,0,0,0,0,0,0,0,-4.8556,-4.8557,0,-4.8588,-4.8588,-4.8588,-4.8381,-4.8375,-4.8369,-4.8364,-4.84,-4.8406,-4.8412,0,0,0,0,0,0,0,0,0,0,0,0,0,-4.832,-4.8325,-4.8556,-4.8557,-4.8557,-4.8587,-4.8588,-4.8588,-4.8382,-4.8375,-4.8368,-4.8361,-4.8398,-4.8405,-4.8413,0,0,0,0,0,0,0,0,0,0,0,0,0,-4.8394,-4.8327,-4.8556,-4.8458,-4.8449,-4.8587,-4.8588,-4.8588,-4.8384,-4.8375,-4.8366,-4.8358,-4.8395,-4.8405,-4.8414,-4.865,0,0,-4.8444,-4.8448,0,0,0,0,0,0,0,0,-4.839,-4.8403,-4.8472,-4.8465,-4.8455,-4.8471,-4.8517,-4.8609,-4.8386,-4.8409,-4.8364,-4.8353,-4.8431,-4.8437,-4.8462,-4.8651,-4.8653,-4.8444,-4.845,-4.8454,-4.8457,0,0,0,0,0,0,0,-4.8385,-4.8401,-4.8568,-4.8473,-4.8463,-4.8412,-4.8413,-4.8534,-4.8469,-4.8406,-4.8391,-4.8397,-4.8425,-4.8454,-4.8462,-4.8653,-4.8444,-4.8453,-4.8459,-4.8462,-4.9036,-4.9045,0,0,0,0,0,0,-4.8393,-4.8398,-4.8567,-4.8569,-4.84,-4.8424,-4.8425,-4.8475,-4.8467,-4.8457,-4.8405,-4.8388,-4.8442,-4.8451,-4.8462,-4.8737,-4.8454,-4.8463,-4.8469,-4.9026,-4.9038,-4.9048,0,0,0,0,0,0,-4.8389,-4.841,-4.8566,-4.8479,-4.8495,-4.8437,-4.8496,-4.848,-4.8509,-4.8466,-4.8454,-4.8446,-4.8435,-4.8449,-4.8604,-4.8735,-4.8468,-4.8476,-4.9015,-4.903,-4.9043,-4.9288,0,0,0,0,0,0,-4.8383,-4.841,-4.8498,-4.8483,-4.8501,-4.8708,-4.8504,-4.8487,-4.8526,-4.8503,-4.8501,-4.8493,-4.8429,-4.8591,-4.8614,-4.8743,-4.8484,-4.9003,-4.9022,-4.9038,-4.9268,-4.9309,-4.9344,0,0,0,0,0,-4.8375,-4.8567,-4.8504,-4.8526,-4.861,-4.8716,-4.8726,-4.8648,-4.8537,-4.8626,-4.8598,-4.8493,-4.8717,-4.8608,-4.8632,-4.8767,-4.8995,-4.9017,-4.9037,-4.9251,-4.9301,-4.9343,0,0,0,0,0,0,-4.8601,-4.8563,-4.8493,-4.8686,-4.8705,-4.868,-4.879,-4.8703,-4.8756,-4.8733,-4.8634,-4.8636,-4.8808,-4.8802,-4.8682,-4.8994,-4.8837,-4.8864,-4.8991,-4.9038,-4.9075,-4.9073,-4.8492,0,0,0,0,0,-4.8673,-4.8761,-4.8724,-4.8897,-4.8911,-4.885,-4.8892,-4.883,-4.8847,-4.8855,-4.8838,-4.886,-4.8934,-4.8986,-4.9052,-4.9266,-4.9263,-4.9371,-4.9409,-4.944,-4.9465,-4.9577,-4.9624,-4.9118,-4.9118,-4.9117,0,0,-4.8824,-4.8814,-4.8876,-4.8943,-4.895,-4.9044,-4.8858,-4.8965,-4.9034,-4.8871,-4.9016,-4.9005,-4.9022,-4.9208,-4.9289,-4.9209,-4.9604,-4.9467,-4.9492,-4.95,-4.9604,-4.9652,-4.9694,-4.9132,-4.913,-4.9127,0,0,-4.9145,-4.9147,-4.9291,-4.9302,-4.9316,-4.9273,-4.9308,-4.9297,-4.9282,-4.9426,-4.9306,-4.9386,-4.9518,-4.9534,-4.956,-4.9887,-4.9793,-4.9912,-5.011,-5.0221,-5.0261,-5.0295,-5.0412,-5.0455,-4.9937,-4.9937,-4.9938,0,-4.933,-4.9466,-4.9377,-4.9492,-4.9525,-4.938,-4.9525,-4.9541,-4.9577,-4.9603,-4.9513,-4.9674,-4.9675,-4.9862,-4.9942,-4.9968,-5.0005,-4.9912,-5.0262,-5.0296,-5.0327,-5.0437,-5.0481,-4.9952,-4.995,-4.9948,-4.9947,0,-4.9693,-4.9789,-4.9904,-4.994,-4.9986,-5.0116,-5.0047,-5.0104,-5.0038,-5.0006,-5.0154,-5.015,-5.0213,-5.0253,-5.019,-5.0431,-5.0381,-5.0278,-5.0118,-5.0391,-5.0493,-5.0534,-4.9972,-4.9967,-4.9963,-4.9959,0,0,-5.0158,-5.0142,-5.0186,-5.02,-5.0204,-5.0277,-5.0401,-5.046,-5.0512,-5.0541,-5.0642,-5.0756,-5.066,-5.069,-5.0627,-5.0724,-5.0983,-5.0609,-5.0607,-5.0678,-5.1248,-5.1326,-5.1376,-5.092,-5.0927,-5.0933,-5.1247,0,-5.0472,-5.068,-5.0603,-5.0818,-5.0905,-5.0768,-5.0876,-5.089,-5.0863,-5.0934,-5.0904,-5.0986,-5.0853,-5.087,-5.096,-5.0933,-5.1096,-5.0909,-5.1014,-5.1018,-5.1014,-5.1429,-5.1511,-5.1807,-5.1286,-5.1292,-5.1297,0,-5.0865,-5.0909,-5.1132,-5.112,-5.1153,-5.1251,-5.1299,-5.1368,-5.1382,-5.1355,-5.1389,-5.1305,-5.1425,-5.1265,-5.143,-5.1305,-5.1343,-5.1336,-5.1345,-5.1352,-5.1175,-5.1447,-5.1899,-5.1944,-5.1359,-5.1354,-5.135,0,-5.1182,-5.1297,-5.1444,-5.1461,-5.1451,-5.1522,-5.1522,-5.1526,-5.1567,-5.161,-5.1635,-5.1692,-5.1724,-5.177,-5.1704,-5.1594,-5.1879,-5.1713,-5.186,-5.1863,-5.1927,-5.1924,-5.2392,-5.1953,-5.1952,-5.1951,-5.195,0,-5.154,-5.1682,-5.1586,-5.1678,-5.1832,-5.1742,-5.1898,-5.1882,-5.1887,-5.1973,-5.1859,-5.1943,-5.185,-5.1925,-5.1875,-5.2019,-5.2034,-5.2016,-5.2001,-5.2026,-5.2029,-5.205,-5.2028,-5.1963,-5.196,-5.1958,-5.1956,0,-5.192,-5.1862,-5.2014,-5.1991,-5.1988,-5.2104,-5.2084,-5.2168,-5.2132,-5.2242,-5.2263,-5.2207,-5.2289,-5.2228,-5.231,-5.2275,-5.2465,-5.2421,-5.2461,-5.2448,-5.2599,-5.2585,-5.3097,-5.3159,-5.2681,-5.2685,-5.2689,0,-5.2152,-5.2258,-5.2246,-5.2294,-5.23,-5.2381,-5.2421,-5.2337,-5.2384,-5.2407,-5.2488,-5.256,-5.2613,-5.275,-5.2718,-5.278,-5.2736,-5.2911,-5.2745,-5.2767,-5.2738,-5.2733,-5.2743,-5.2945,-5.2951,-5.2955,-5.2959,0,-5.257,-5.2536,-5.2597,-5.2651,-5.2701,-5.2739,-5.2768,-5.2814,-5.2729,-5.2787,-5.2869,-5.291,-5.2992,-5.3066,-5.3116,-5.3115,-5.3024,-5.3012,-5.3049,-5.3076,-5.3094,-5.3085,-5.2552,-5.3,-5.2996,-5.2993,-5.2991,-5.2989,-5.2882,-5.2969,-5.2974,-5.3047,-5.3059,-5.3089,-5.3165,-5.3139,-5.3205,-5.3264,-5.3211,-5.3309,-5.332,-5.3377,-5.3388,-5.3464,-5.3392,-5.3446,-5.346,-5.3474,-5.3495,-5.3082,-5.3473,-5.3472,-5.347,-5.3469,-5.3469,0,-5.3293,-5.329,-5.3358,-5.34,-5.3458,-5.3365,-5.3392,-5.3447,-5.3534,-5.3551,-5.3605,-5.3699,-5.3769,-5.3742,-5.3804,-5.387,-5.383,-5.3889,-5.3883,-5.3884,-5.3557,-5.3518,-5.392,-5.392,-5.392,-5.392,-5.392,-5.392,-5.3514,-5.3656,-5.3623,-5.377,-5.3764,-5.3859,-5.3882,-5.3908,-5.3921,-5.403,-5.4088,-5.4069,-5.4068,-5.4129,-5.4189,-5.4179,-5.4207,-5.4282,-5.4258,-5.3952,-5.3908,-5.3865,-5.3828,-5.4289,-5.429,-5.4579,-5.4581,-5.4584]},{"header":{"parameterUnit":"m.s-1","parameterCategory":1,"la1":30.2991,"la2":30.254,"lo1":-89.0895,"lo2":-89.0444,"dy":0.0017,"dx":0.0017,"nx":28,"ny":28,"refTime":"2024-10-18T03:00:00:Z","depth":0,"parameterNumber":3,"parameterNumberName":"V-component_of_WINDS"},"data":[0,0,0,0,0,0,0,0,0,0,0,0,0,0,0,0,0,0,0,0,0,0,0,0,0,0,0,0,0,0,0,0,0,0,0,0,0,0,0,0,0,0,0,0,0,0,0,0,0,0,0,0,0,0,0,0,0,0,-2.6735,-2.6736,0,-2.6773,-2.6774,-2.6774,-2.6755,-2.6754,-2.6753,-2.6752,-2.6787,-2.6789,-2.6791,0,0,0,0,0,0,0,0,0,0,0,0,0,-2.6641,-2.6643,-2.6735,-2.6736,-2.6736,-2.6773,-2.6774,-2.6774,-2.6755,-2.6754,-2.6753,-2.6752,-2.6787,-2.6789,-2.6791,0,0,0,0,0,0,0,0,0,0,0,0,0,-2.6681,-2.6644,-2.6735,-2.6731,-2.6731,-2.6773,-2.6774,-2.6774,-2.6755,-2.6754,-2.6752,-2.6751,-2.6786,-2.6789,-2.6791,-2.6838,0,0,-2.68,-2.6801,0,0,0,0,0,0,0,0,-2.6679,-2.6684,-2.6731,-2.6732,-2.6732,-2.6758,-2.6753,-2.6796,-2.6756,-2.6746,-2.6752,-2.675,-2.6778,-2.6782,-2.6792,-2.684,-2.6841,-2.68,-2.6802,-2.6803,-2.6804,0,0,0,0,0,0,0,-2.6676,-2.6683,-2.675,-2.6732,-2.6732,-2.6726,-2.673,-2.6761,-2.677,-2.6747,-2.6746,-2.6751,-2.6778,-2.6789,-2.6793,-2.6842,-2.68,-2.6802,-2.6804,-2.6805,-2.6927,-2.6929,0,0,0,0,0,0,-2.6674,-2.6681,-2.6749,-2.6751,-2.6701,-2.6729,-2.6733,-2.6751,-2.677,-2.6771,-2.6752,-2.675,-2.6785,-2.6789,-2.6794,-2.6848,-2.6803,-2.6806,-2.6807,-2.6926,-2.6928,-2.693,0,0,0,0,0,0,-2.6672,-2.668,-2.6747,-2.6716,-2.6724,-2.6732,-2.6752,-2.6752,-2.6764,-2.6773,-2.6774,-2.6762,-2.6784,-2.679,-2.6827,-2.6849,-2.6807,-2.6809,-2.6924,-2.6926,-2.6929,-2.6958,0,0,0,0,0,0,-2.667,-2.668,-2.6699,-2.6716,-2.6725,-2.6781,-2.6753,-2.6754,-2.6769,-2.6766,-2.6783,-2.6784,-2.6784,-2.6823,-2.683,-2.6852,-2.6811,-2.6922,-2.6925,-2.6928,-2.6955,-2.6962,-2.6967,0,0,0,0,0,-2.6666,-2.6705,-2.67,-2.6708,-2.675,-2.6783,-2.6788,-2.6787,-2.6771,-2.6789,-2.6795,-2.6784,-2.6846,-2.6827,-2.6834,-2.6858,-2.6921,-2.6924,-2.6928,-2.6953,-2.696,-2.6967,0,0,0,0,0,0,-2.6689,-2.6707,-2.6702,-2.6748,-2.6764,-2.6779,-2.6803,-2.6795,-2.6815,-2.6812,-2.6809,-2.6813,-2.6851,-2.6859,-2.6837,-2.6903,-2.6881,-2.6886,-2.6897,-2.6904,-2.691,-2.6907,-2.6814,0,0,0,0,0,-2.67,-2.6727,-2.6741,-2.678,-2.6788,-2.6794,-2.6809,-2.6807,-2.6823,-2.6829,-2.6838,-2.6853,-2.6875,-2.689,-2.6912,-2.6957,-2.6959,-2.6977,-2.6982,-2.6987,-2.6991,-2.7013,-2.7021,-2.6941,-2.6941,-2.6941,0,0,-2.6721,-2.6735,-2.6752,-2.6785,-2.6797,-2.6823,-2.68,-2.6829,-2.6848,-2.6833,-2.6869,-2.6876,-2.6892,-2.6933,-2.6951,-2.694,-2.7013,-2.6991,-2.6995,-2.6996,-2.7018,-2.7025,-2.7032,-2.6944,-2.6943,-2.6943,0,0,-2.6774,-2.6788,-2.6821,-2.6834,-2.6853,-2.6857,-2.6865,-2.6881,-2.6886,-2.6922,-2.6911,-2.6932,-2.6972,-2.6984,-2.6995,-2.7051,-2.7041,-2.7058,-2.7087,-2.7109,-2.7115,-2.712,-2.7139,-2.7146,-2.7062,-2.7062,-2.7063,0,-2.6798,-2.6839,-2.6839,-2.6869,-2.6882,-2.6872,-2.6904,-2.6916,-2.6941,-2.695,-2.6938,-2.6986,-2.6997,-2.7039,-2.7053,-2.7063,-2.707,-2.7056,-2.7114,-2.712,-2.7125,-2.7142,-2.7149,-2.7064,-2.7064,-2.7064,-2.7064,0,-2.6866,-2.6894,-2.6919,-2.6944,-2.6961,-2.6992,-2.6995,-2.7012,-2.7008,-2.7013,-2.7048,-2.706,-2.7083,-2.7093,-2.709,-2.7135,-2.7127,-2.7115,-2.7092,-2.7134,-2.7151,-2.7157,-2.7067,-2.7066,-2.7066,-2.7065,0,0,-2.6934,-2.6959,-2.6968,-2.6978,-2.6998,-2.7019,-2.7049,-2.7073,-2.7086,-2.7103,-2.7127,-2.7161,-2.7149,-2.7161,-2.7159,-2.7179,-2.722,-2.7163,-2.7164,-2.7172,-2.7268,-2.7277,-2.7285,-2.7214,-2.7215,-2.7216,-2.7266,0,-2.6987,-2.704,-2.7041,-2.7089,-2.7114,-2.7104,-2.7129,-2.7143,-2.7148,-2.7169,-2.7173,-2.7196,-2.718,-2.7187,-2.7206,-2.7211,-2.7239,-2.7208,-2.7234,-2.7235,-2.7229,-2.7293,-2.7302,-2.7349,-2.7273,-2.7274,-2.7275,0,-2.7056,-2.7076,-2.7127,-2.7142,-2.7153,-2.7176,-2.7197,-2.7217,-2.7232,-2.7234,-2.7248,-2.7243,-2.7271,-2.7248,-2.7286,-2.7265,-2.7276,-2.728,-2.7281,-2.7283,-2.7257,-2.7295,-2.7364,-2.737,-2.7285,-2.7284,-2.7284,0,-2.7098,-2.7138,-2.7173,-2.7183,-2.7202,-2.7218,-2.7227,-2.7241,-2.7255,-2.7272,-2.7281,-2.7302,-2.7313,-2.7328,-2.7328,-2.7311,-2.7366,-2.7343,-2.7366,-2.7366,-2.7377,-2.7376,-2.7448,-2.7387,-2.7387,-2.7387,-2.7386,0,-2.7156,-2.7187,-2.7192,-2.7214,-2.7248,-2.7248,-2.7281,-2.7288,-2.73,-2.7321,-2.7314,-2.7334,-2.7333,-2.7353,-2.7353,-2.7383,-2.7388,-2.7389,-2.7389,-2.7389,-2.7389,-2.7395,-2.7391,-2.7388,-2.7388,-2.7388,-2.7387,0,-2.7208,-2.7213,-2.7251,-2.7266,-2.7271,-2.7295,-2.7307,-2.7327,-2.7331,-2.7358,-2.7364,-2.737,-2.7393,-2.7394,-2.7421,-2.742,-2.7457,-2.7453,-2.7452,-2.7451,-2.7474,-2.7471,-2.755,-2.756,-2.7494,-2.7495,-2.7495,0,-2.7244,-2.7268,-2.7286,-2.73,-2.731,-2.7333,-2.7347,-2.7348,-2.7362,-2.7381,-2.7398,-2.742,-2.7438,-2.7475,-2.748,-2.75,-2.7496,-2.7522,-2.7498,-2.7498,-2.7494,-2.7492,-2.7494,-2.7526,-2.7527,-2.7528,-2.7528,0,-2.7307,-2.7308,-2.733,-2.7351,-2.7369,-2.7386,-2.7401,-2.7413,-2.7415,-2.7432,-2.7456,-2.7469,-2.7496,-2.7518,-2.7537,-2.7544,-2.7536,-2.7536,-2.7542,-2.7542,-2.754,-2.754,-2.7463,-2.7534,-2.7533,-2.7533,-2.7532,-2.7532,-2.7351,-2.7371,-2.7387,-2.741,-2.7422,-2.7437,-2.7456,-2.7463,-2.7483,-2.7505,-2.7504,-2.753,-2.7543,-2.7568,-2.7577,-2.7596,-2.7586,-2.7596,-2.7598,-2.76,-2.7601,-2.7538,-2.7599,-2.7599,-2.7599,-2.7599,-2.7599,0,-2.7412,-2.7422,-2.7443,-2.7466,-2.7484,-2.7476,-2.7493,-2.7508,-2.7531,-2.7545,-2.7563,-2.7589,-2.761,-2.7617,-2.7637,-2.7651,-2.7647,-2.7656,-2.7654,-2.7655,-2.7609,-2.7601,-2.7658,-2.7658,-2.7658,-2.7658,-2.7658,-2.7658,-2.7446,-2.7479,-2.7482,-2.752,-2.7529,-2.7555,-2.7565,-2.7578,-2.7588,-2.7619,-2.7636,-2.7641,-2.7652,-2.7672,-2.769,-2.7692,-2.7699,-2.7708,-2.7708,-2.7665,-2.7659,-2.7653,-2.7645,-2.771,-2.771,-2.7752,-2.7753,-2.7753]}]]